Previsão horária em Abazivka

Hoje, 14 Abril, Quarta-feira

Tempo Temperatura Precipitação Vento Pressão Humidade
00:00 +9°C° 0 mm 2 m/s 751 mmHg 81%
01:00 +9°C° 0 mm 2 m/s 751 mmHg 84%
02:00 +8°C° 0 mm 2 m/s 751 mmHg 86%
03:00 +8°C° 0 mm 2 m/s 751 mmHg 88%
04:00 +8°C° 0 mm 2 m/s 751 mmHg 89%
05:00 +7°C° 0 mm 2 m/s 751 mmHg 90%
06:00 +8°C° 0 mm 2 m/s 751 mmHg 86%
07:00 +9°C° 0 mm 2 m/s 751 mmHg 81%
08:00 +10°C° 0 mm 2 m/s 751 mmHg 76%
09:00 +12°C° 0 mm 2 m/s 750 mmHg 71%
10:00 +13°C° 0 mm 2 m/s 750 mmHg 66%
11:00 +14°C° 0 mm 2 m/s 750 mmHg 61%
12:00 +13°C° 0.1 mm 3 m/s 749 mmHg 61%
13:00 +13°C° 0.1 mm 3 m/s 749 mmHg 61%
14:00 +13°C° 0 mm 3 m/s 749 mmHg 62%
15:00 +13°C° 0.2 mm 3 m/s 748 mmHg 66%
16:00 +13°C° 0.2 mm 2 m/s 748 mmHg 71%
17:00 +13°C° 0.2 mm 2 m/s 748 mmHg 75%
18:00 +12°C° 0.1 mm 2 m/s 748 mmHg 77%
19:00 +12°C° 0.1 mm 2 m/s 748 mmHg 78%
20:00 +10°C° 0.1 mm 2 m/s 748 mmHg 80%
21:00 +11°C° 0.2 mm 1 m/s 748 mmHg 81%
22:00 +11°C° 0.2 mm 1 m/s 747 mmHg 82%
23:00 +10°C° 0.2 mm 1 m/s 747 mmHg 83%

Amanhã, 15 Abril, Quinta-feira

Tempo Temperatura Precipitação Vento Pressão Humidade
00:00 +10°C° 0 mm 1 m/s 747 mmHg 84%
01:00 +8°C° 0 mm 2 m/s 747 mmHg 85%
02:00 +8°C° 0 mm 2 m/s 747 mmHg 86%
03:00 +8°C° 0 mm 2 m/s 747 mmHg 85%
04:00 +7°C° 0 mm 2 m/s 747 mmHg 84%
05:00 +7°C° 0 mm 2 m/s 747 mmHg 83%
06:00 +8°C° 0 mm 2 m/s 747 mmHg 80%
07:00 +9°C° 0 mm 3 m/s 747 mmHg 76%
08:00 +10°C° 0 mm 3 m/s 747 mmHg 73%
09:00 +10°C° 0.1 mm 3 m/s 747 mmHg 72%
10:00 +11°C° 0.1 mm 4 m/s 747 mmHg 72%
11:00 +11°C° 0.1 mm 4 m/s 746 mmHg 72%
12:00 +12°C° 0.2 mm 4 m/s 746 mmHg 70%
13:00 +12°C° 0.2 mm 4 m/s 746 mmHg 67%
14:00 +13°C° 0.2 mm 4 m/s 746 mmHg 65%
15:00 +11°C° 1.2 mm 4 m/s 746 mmHg 72%
16:00 +10°C° 1.2 mm 4 m/s 746 mmHg 78%
17:00 +8°C° 1.2 mm 4 m/s 746 mmHg 85%
18:00 +9°C° 0.4 mm 3 m/s 746 mmHg 85%
19:00 +8°C° 0.4 mm 2 m/s 746 mmHg 85%
20:00 +9°C° 0.4 mm 1 m/s 746 mmHg 86%
21:00 +8°C° 0.1 mm 2 m/s 746 mmHg 86%
22:00 +8°C° 0.1 mm 2 m/s 746 mmHg 86%
23:00 +8°C° 0.1 mm 3 m/s 745 mmHg 86%

Depois de amanhã, 16 Abril, Sexta-feira

Tempo Temperatura Precipitação Vento Pressão Humidade
00:00 +7°C° 0 mm 3 m/s 745 mmHg 87%
01:00 +7°C° 0 mm 3 m/s 746 mmHg 88%
02:00 +7°C° 0 mm 3 m/s 746 mmHg 89%
03:00 +7°C° 0 mm 3 m/s 746 mmHg 90%
04:00 +7°C° 0 mm 3 m/s 746 mmHg 91%
05:00 +7°C° 0 mm 3 m/s 746 mmHg 93%
06:00 +7°C° 0.1 mm 3 m/s 746 mmHg 91%
07:00 +6°C° 0.1 mm 4 m/s 746 mmHg 89%
08:00 +7°C° 0.1 mm 4 m/s 747 mmHg 87%
09:00 +8°C° 0.1 mm 4 m/s 747 mmHg 83%
10:00 +8°C° 0.1 mm 4 m/s 747 mmHg 78%
11:00 +9°C° 0.1 mm 5 m/s 747 mmHg 74%
12:00 +9°C° 0.3 mm 5 m/s 747 mmHg 73%
13:00 +9°C° 0.3 mm 5 m/s 748 mmHg 73%
14:00 +9°C° 0.3 mm 5 m/s 748 mmHg 72%
15:00 +9°C° 0.2 mm 5 m/s 748 mmHg 72%
16:00 +10°C° 0.2 mm 4 m/s 748 mmHg 73%
17:00 +10°C° 0.2 mm 4 m/s 748 mmHg 73%
18:00 +9°C° 0.1 mm 3 m/s 748 mmHg 77%
19:00 +8°C° 0.1 mm 3 m/s 749 mmHg 82%
20:00 +7°C° 0.1 mm 2 m/s 749 mmHg 86%
21:00 +7°C° 0 mm 2 m/s 749 mmHg 88%
22:00 +6°C° 0 mm 2 m/s 749 mmHg 90%
23:00 +5°C° 0 mm 2 m/s 749 mmHg 93%

17 Abril, Sábado

Tempo Temperatura Precipitação Vento Pressão Humidade
00:00 +5°C° 0 mm 2 m/s 750 mmHg 92%
01:00 +5°C° 0 mm 2 m/s 750 mmHg 91%
02:00 +5°C° 0 mm 2 m/s 750 mmHg 90%
03:00 +5°C° 0 mm 2 m/s 750 mmHg 89%
04:00 +6°C° 0 mm 1 m/s 751 mmHg 89%
05:00 +6°C° 0 mm 1 m/s 751 mmHg 88%
06:00 +7°C° 0 mm 1 m/s 751 mmHg 84%
07:00 +7°C° 0 mm 1 m/s 751 mmHg 81%
08:00 +8°C° 0 mm 1 m/s 752 mmHg 77%
09:00 +9°C° 0 mm 1 m/s 752 mmHg 72%
10:00 +10°C° 0 mm 1 m/s 752 mmHg 67%
11:00 +11°C° 0 mm 1 m/s 752 mmHg 61%
12:00 +11°C° 0 mm 1 m/s 752 mmHg 60%
13:00 +11°C° 0 mm 1 m/s 752 mmHg 58%
14:00 +12°C° 0 mm 1 m/s 753 mmHg 56%
15:00 +12°C° 0 mm 2 m/s 752 mmHg 57%
16:00 +12°C° 0 mm 2 m/s 752 mmHg 58%
17:00 +12°C° 0 mm 2 m/s 752 mmHg 58%
18:00 +9°C° 0 mm 2 m/s 752 mmHg 66%
19:00 +8°C° 0 mm 2 m/s 753 mmHg 74%
20:00 +7°C° 0 mm 3 m/s 753 mmHg 81%
21:00 +6°C° 0 mm 2 m/s 753 mmHg 84%
22:00 +6°C° 0 mm 2 m/s 753 mmHg 86%
23:00 +5°C° 0 mm 2 m/s 753 mmHg 88%

18 Abril, Domingo

Tempo Temperatura Precipitação Vento Pressão Humidade
00:00 +5°C° 0 mm 2 m/s 753 mmHg 89%
01:00 +5°C° 0 mm 2 m/s 753 mmHg 89%
02:00 +5°C° 0 mm 2 m/s 752 mmHg 89%
03:00 +4°C° 0 mm 2 m/s 752 mmHg 89%
04:00 +5°C° 0 mm 1 m/s 752 mmHg 89%
05:00 +5°C° 0 mm 1 m/s 753 mmHg 89%
06:00 +7°C° 0 mm 1 m/s 753 mmHg 81%
07:00 +9°C° 0 mm 1 m/s 753 mmHg 74%
08:00 +9°C° 0 mm 2 m/s 753 mmHg 67%
09:00 +10°C° 0 mm 2 m/s 753 mmHg 63%
10:00 +12°C° 0 mm 2 m/s 753 mmHg 60%
11:00 +13°C° 0 mm 2 m/s 753 mmHg 56%
12:00 +13°C° 0 mm 2 m/s 753 mmHg 56%
13:00 +13°C° 0 mm 3 m/s 753 mmHg 56%
14:00 +13°C° 0 mm 3 m/s 753 mmHg 56%
15:00 +13°C° 0 mm 3 m/s 753 mmHg 58%
16:00 +13°C° 0 mm 3 m/s 753 mmHg 60%
17:00 +13°C° 0 mm 3 m/s 753 mmHg 61%
18:00 +12°C° 0 mm 3 m/s 753 mmHg 67%
19:00 +10°C° 0 mm 3 m/s 753 mmHg 73%
20:00 +9°C° 0 mm 2 m/s 754 mmHg 79%
21:00 +9°C° 0 mm 2 m/s 754 mmHg 80%
22:00 +9°C° 0 mm 3 m/s 754 mmHg 82%
23:00 +8°C° 0 mm 3 m/s 754 mmHg 83%

19 Abril, Segunda-feira

Tempo Temperatura Precipitação Vento Pressão Humidade
00:00 +8°C° 0 mm 3 m/s 755 mmHg 82%
01:00 +7°C° 0 mm 3 m/s 755 mmHg 82%
02:00 +7°C° 0 mm 3 m/s 755 mmHg 81%
03:00 +7°C° 0 mm 3 m/s 755 mmHg 82%
04:00 +5°C° 0 mm 3 m/s 755 mmHg 83%
05:00 +5°C° 0 mm 3 m/s 755 mmHg 84%
06:00 +6°C° 0 mm 4 m/s 755 mmHg 77%
07:00 +8°C° 0 mm 4 m/s 755 mmHg 71%
08:00 +9°C° 0 mm 5 m/s 755 mmHg 65%
09:00 +10°C° 0 mm 5 m/s 755 mmHg 60%
10:00 +13°C° 0 mm 6 m/s 755 mmHg 54%
11:00 +14°C° 0 mm 7 m/s 755 mmHg 49%
12:00 +14°C° 0 mm 7 m/s 755 mmHg 48%
13:00 +14°C° 0 mm 7 m/s 754 mmHg 47%
14:00 +15°C° 0 mm 7 m/s 754 mmHg 47%
15:00 +14°C° 0 mm 7 m/s 754 mmHg 50%
16:00 +14°C° 0 mm 6 m/s 754 mmHg 53%
17:00 +13°C° 0 mm 6 m/s 754 mmHg 57%
18:00 +11°C° 0 mm 6 m/s 754 mmHg 60%
19:00 +10°C° 0 mm 6 m/s 753 mmHg 63%
20:00 +9°C° 0 mm 6 m/s 753 mmHg 66%
21:00 +8°C° 0 mm 7 m/s 753 mmHg 66%
22:00 +8°C° 0 mm 7 m/s 753 mmHg 66%
23:00 +7°C° 0 mm 8 m/s 752 mmHg 66%
Mostrar mais

Necessitamos do seu Consentimento

A Meteoprog e os seus Fornecedores de Serviços podem armazenar e aceder a dados pessoais como cookies, identificadores do dispositivo ou outras tecnologias semelhantes existentes no seu dispositivo e processar estes dados para personalizar conteúdos e anúncios, assim como funcionalidades nas redes sociais e análise de tráfego.

  • Armazenar e/ou aceder a informações no seu dispositivo

    Os cookies, identificadores do dispositivo ou outras informações podem ser armazenados ou acedidos no seu dispositivo, para os fins acima indicados.

  • Anúncios e conteúdos personalizados, medição de anúncios e conteúdos, dados sobre o público-alvo e desenvolvimento de produtos

    Os anúncios e os conteúdos podem ser personalizados com base num perfil. Podem ser adicionados dados adicionais para uma maior personalização dos anúncios e dos conteúdos. A eficácia dos anúncios e dos conteúdos pode ser medida. Podem ser obtidas informações sobre o público que visualizou os anúncios e os conteúdos. Estes dados podem ser usados para desenvolver ou melhorar sistemas, softwares ou a experiência do utilizador.

Ao clicar em "Eu concordo”, permitirá o uso de cookies, identificadores do dispositivo e web beacons mencionados ou outras tecnologias semelhantes. As configurações do navegador do seu dispositivo podem ser alteradas.

Para certos fins, podem ser invocados interesses legítimos ao invés de consentimento. Pode ler mais informação sobre este assunto na nossa Política de Privacidade e Cookies.